AFL1638 UNNT-UNOO

Flight info

Callsign AFL1638
Flight time 0h 58m
Altitude 30000
Route OGAMA A308 OSNAB G828 SZ B234 KOVEN
Aircraft A320/M-SDE3FGHIRWY/LB1

Departure

Time 2026-04-23 03:25
Airport Novosibirsk Tolmachevo Airport (UNNT)

Arrival

Time 2026-04-23 04:23
Airport Omsk Central Airport (UNOO)
Time Latitude Longitude Altitude Speed Heading
2026-04-23 03:21 55.01068 82.66329 382 ft 0 kts 171°
2026-04-23 03:22 55.01050 82.66335 373 ft 5 kts 170°
2026-04-23 03:22 55.01023 82.66384 373 ft 8 kts 90°
2026-04-23 03:23 55.01046 82.66493 373 ft 12 kts 68°
2026-04-23 03:23 55.01087 82.66638 373 ft 14 kts 42°
2026-04-23 03:23 55.01196 82.66638 373 ft 18 kts 352°
2026-04-23 03:23 55.01330 82.66604 374 ft 21 kts 351°
2026-04-23 03:24 55.01371 82.66460 375 ft 16 kts 260°
2026-04-23 03:24 55.01333 82.66051 373 ft 67 kts 261°
2026-04-23 03:24 55.01225 82.64861 372 ft 129 kts 261°
2026-04-23 03:24 55.01064 82.63033 450 ft 169 kts 260°
2026-04-23 03:25 55.00879 82.61035 1133 ft 166 kts 257°
2026-04-23 03:25 55.00676 82.59049 1839 ft 169 kts 256°
2026-04-23 03:25 55.00451 82.56918 2193 ft 190 kts 258°
2026-04-23 03:25 55.00394 82.54472 2559 ft 220 kts 281°
2026-04-23 03:26 55.01239 82.52072 2984 ft 254 kts 319°
2026-04-23 03:26 55.02871 82.50689 3646 ft 270 kts 339°
2026-04-23 03:26 55.04707 82.49762 4549 ft 277 kts 343°
2026-04-23 03:26 55.06573 82.48892 5437 ft 279 kts 336°
2026-04-23 03:27 55.08182 82.47001 6298 ft 277 kts 307°
2026-04-23 03:27 55.09086 82.44130 7114 ft 274 kts 288°
2026-04-23 03:27 55.09863 82.41017 7997 ft 278 kts 293°
2026-04-23 03:27 55.10766 82.37994 8848 ft 282 kts 295°
2026-04-23 03:28 55.11683 82.35078 9662 ft 285 kts 295°
2026-04-23 03:28 55.12682 82.31898 10148 ft 303 kts 295°
2026-04-23 03:28 55.13715 82.28542 10472 ft 322 kts 295°
2026-04-23 03:28 55.14775 82.25040 11124 ft 328 kts 295°
2026-04-23 03:29 55.15840 82.21484 11893 ft 331 kts 295°
2026-04-23 03:29 55.16905 82.17891 12670 ft 334 kts 294°
2026-04-23 03:29 55.17970 82.14270 13443 ft 337 kts 294°
2026-04-23 03:29 55.19042 82.10611 14117 ft 339 kts 294°
2026-04-23 03:30 55.20119 82.06921 14787 ft 341 kts 294°
2026-04-23 03:30 55.21198 82.03214 15446 ft 343 kts 294°
2026-04-23 03:30 55.22284 81.99477 16111 ft 346 kts 294°
2026-04-23 03:30 55.23380 81.95706 16780 ft 348 kts 294°
2026-04-23 03:31 55.24484 81.91907 17427 ft 351 kts 294°
2026-04-23 03:31 55.25594 81.88083 18074 ft 353 kts 294°
2026-04-23 03:31 55.26711 81.84229 18641 ft 356 kts 294°
2026-04-23 03:31 55.27834 81.80349 19187 ft 358 kts 294°
2026-04-23 03:32 55.28963 81.76446 19752 ft 360 kts 294°
2026-04-23 03:32 55.30095 81.72516 20304 ft 362 kts 294°
2026-04-23 03:32 55.31232 81.68560 20841 ft 364 kts 294°
2026-04-23 03:32 55.32373 81.64576 21369 ft 366 kts 294°
2026-04-23 03:33 55.33521 81.60568 21892 ft 368 kts 294°
2026-04-23 03:33 55.34676 81.56535 22395 ft 371 kts 294°
2026-04-23 03:33 55.35852 81.52422 22923 ft 373 kts 294°
2026-04-23 03:33 55.37020 81.48336 23393 ft 375 kts 294°
2026-04-23 03:34 55.38191 81.44232 23803 ft 377 kts 294°
2026-04-23 03:34 55.39365 81.40099 24209 ft 379 kts 294°
2026-04-23 03:34 55.40504 81.36085 24602 ft 381 kts 294°
2026-04-23 03:34 55.41724 81.31783 25013 ft 383 kts 293°
2026-04-23 03:35 55.42913 81.27576 25406 ft 385 kts 293°
2026-04-23 03:35 55.44104 81.23340 25793 ft 387 kts 293°
2026-04-23 03:35 55.45299 81.19083 26183 ft 389 kts 293°
2026-04-23 03:35 55.46478 81.14790 26561 ft 389 kts 290°
2026-04-23 03:36 55.47332 81.10286 26937 ft 388 kts 282°
2026-04-23 03:36 55.47967 81.05640 27307 ft 390 kts 281°
2026-04-23 03:36 55.48605 81.00979 27687 ft 392 kts 282°
2026-04-23 03:36 55.49250 80.96297 28053 ft 394 kts 282°
2026-04-23 03:37 55.49901 80.91594 28418 ft 396 kts 282°
2026-04-23 03:37 55.50555 80.86873 28775 ft 397 kts 282°
2026-04-23 03:37 55.51211 80.82115 29139 ft 399 kts 282°
2026-04-23 03:37 55.51864 80.77354 29485 ft 401 kts 282°
2026-04-23 03:38 55.52517 80.72552 29677 ft 401 kts 281°
2026-04-23 03:38 55.53162 80.67797 29704 ft 401 kts 281°
2026-04-23 03:38 55.54481 80.58012 29699 ft 418 kts 281°
2026-04-23 03:39 55.55836 80.47864 29701 ft 428 kts 281°
2026-04-23 03:39 55.57202 80.37611 29704 ft 429 kts 281°
2026-04-23 03:40 55.58563 80.27321 29704 ft 429 kts 281°
2026-04-23 03:40 55.59915 80.16977 29697 ft 430 kts 281°
2026-04-23 03:41 55.61253 80.06681 29700 ft 429 kts 281°
2026-04-23 03:41 55.62581 79.96385 29698 ft 429 kts 280°
2026-04-23 03:42 55.62951 79.91156 29697 ft 427 kts 269°
2026-04-23 03:42 55.62704 79.85963 29694 ft 425 kts 258°
2026-04-23 03:42 55.61078 79.75888 29700 ft 425 kts 254°
2026-04-23 03:43 55.59398 79.65871 29696 ft 425 kts 254°
2026-04-23 03:43 55.57713 79.55848 29697 ft 425 kts 254°
2026-04-23 03:44 55.56022 79.45842 29699 ft 425 kts 253°
2026-04-23 03:44 55.54315 79.35870 29698 ft 424 kts 253°
2026-04-23 03:45 55.52592 79.25896 29691 ft 424 kts 253°
2026-04-23 03:45 55.50879 79.15964 29698 ft 423 kts 253°
2026-04-23 03:46 55.49165 79.06021 29699 ft 423 kts 253°
2026-04-23 03:46 55.47434 78.96117 29697 ft 422 kts 253°
2026-04-23 03:47 55.45696 78.86240 29702 ft 422 kts 253°
2026-04-23 03:47 55.43954 78.76324 29699 ft 421 kts 253°
2026-04-23 03:48 55.42205 78.66485 29695 ft 421 kts 253°
2026-04-23 03:48 55.40449 78.56667 29692 ft 420 kts 253°
2026-04-23 03:49 55.38988 78.48525 29686 ft 420 kts 252°
2026-04-23 03:49 55.37222 78.38732 29686 ft 420 kts 252°
2026-04-23 03:50 55.35626 78.28872 29678 ft 420 kts 261°
2026-04-23 03:50 55.35029 78.18659 29679 ft 420 kts 263°
2026-04-23 03:51 55.34449 78.08457 29679 ft 420 kts 263°
2026-04-23 03:51 55.33843 77.98247 29681 ft 420 kts 263°
2026-04-23 03:52 55.33219 77.87987 29681 ft 419 kts 263°
2026-04-23 03:52 55.32601 77.77806 29682 ft 419 kts 263°
2026-04-23 03:53 55.31977 77.67637 29686 ft 419 kts 263°
2026-04-23 03:53 55.31343 77.57487 29686 ft 418 kts 263°
2026-04-23 03:54 55.30698 77.47346 29686 ft 418 kts 263°
2026-04-23 03:54 55.30042 77.37219 29688 ft 417 kts 262°
2026-04-23 03:55 55.29379 77.27092 29685 ft 417 kts 262°
2026-04-23 03:55 55.28719 77.16996 29687 ft 417 kts 262°
2026-04-23 03:56 55.28045 77.06915 29688 ft 416 kts 262°
2026-04-23 03:56 55.27365 76.96841 29688 ft 416 kts 262°
2026-04-23 03:57 55.26682 76.86772 29688 ft 415 kts 262°
2026-04-23 03:57 55.25978 76.76730 29690 ft 415 kts 262°
2026-04-23 03:58 55.25263 76.66714 29689 ft 414 kts 261°
2026-04-23 03:58 55.24541 76.56707 29686 ft 413 kts 261°
2026-04-23 03:59 55.23812 76.46644 29691 ft 413 kts 261°
2026-04-23 03:59 55.23089 76.36685 29689 ft 412 kts 261°
2026-04-23 04:00 55.22375 76.26987 29676 ft 383 kts 261°
2026-04-23 04:00 55.22038 76.22468 29676 ft 366 kts 261°
2026-04-23 04:00 55.21711 76.18124 29680 ft 356 kts 260°
2026-04-23 04:01 55.21054 76.09611 29674 ft 351 kts 260°
2026-04-23 04:01 55.20730 76.05395 29325 ft 346 kts 260°
2026-04-23 04:01 55.20414 76.01264 28933 ft 339 kts 260°
2026-04-23 04:02 55.20103 75.97211 28560 ft 333 kts 260°
2026-04-23 04:02 55.19794 75.93243 28198 ft 327 kts 260°
2026-04-23 04:02 55.19490 75.89338 27841 ft 320 kts 260°
2026-04-23 04:02 55.19191 75.85508 27486 ft 315 kts 260°
2026-04-23 04:03 55.18895 75.81743 27136 ft 310 kts 260°
2026-04-23 04:03 55.18601 75.78040 26793 ft 305 kts 259°
2026-04-23 04:03 55.18311 75.74399 26452 ft 300 kts 259°
2026-04-23 04:03 55.18023 75.70786 26108 ft 300 kts 259°
2026-04-23 04:04 55.17727 75.67075 25760 ft 316 kts 259°
2026-04-23 04:04 55.17420 75.63224 25316 ft 322 kts 259°
2026-04-23 04:04 55.17115 75.59344 24876 ft 323 kts 260°
2026-04-23 04:04 55.16812 75.55451 24425 ft 323 kts 260°
2026-04-23 04:05 55.16508 75.51564 23964 ft 322 kts 259°
2026-04-23 04:05 55.16200 75.47681 23499 ft 322 kts 259°
2026-04-23 04:05 55.15887 75.43756 22996 ft 322 kts 259°
2026-04-23 04:05 55.15578 75.39886 22503 ft 321 kts 259°
2026-04-23 04:06 55.15270 75.36034 22066 ft 319 kts 259°
2026-04-23 04:06 55.14961 75.32193 21615 ft 318 kts 259°
2026-04-23 04:06 55.14651 75.28368 21173 ft 317 kts 259°
2026-04-23 04:06 55.14339 75.24560 20731 ft 316 kts 259°
2026-04-23 04:07 55.14027 75.20767 20296 ft 315 kts 259°
2026-04-23 04:07 55.13715 75.16989 19869 ft 313 kts 259°
2026-04-23 04:07 55.13403 75.13225 19444 ft 313 kts 259°
2026-04-23 04:07 55.13090 75.09462 19011 ft 312 kts 259°
2026-04-23 04:08 55.12777 75.05709 18586 ft 312 kts 259°
2026-04-23 04:08 55.12463 75.01956 18163 ft 312 kts 259°
2026-04-23 04:08 55.12149 74.98202 17708 ft 312 kts 259°
2026-04-23 04:08 55.11836 74.94462 17276 ft 311 kts 259°
2026-04-23 04:09 55.11521 74.90725 16864 ft 310 kts 259°
2026-04-23 04:09 55.11208 74.87021 16451 ft 308 kts 259°
2026-04-23 04:09 55.10894 74.83316 16051 ft 307 kts 259°
2026-04-23 04:09 55.10580 74.79640 15650 ft 306 kts 259°
2026-04-23 04:10 55.10265 74.75964 15251 ft 306 kts 259°
2026-04-23 04:10 55.09948 74.72295 14863 ft 305 kts 259°
2026-04-23 04:10 55.09631 74.68631 14476 ft 305 kts 259°
2026-04-23 04:10 55.09312 74.64974 14078 ft 304 kts 259°
2026-04-23 04:11 55.08992 74.61323 13686 ft 304 kts 259°
2026-04-23 04:11 55.08673 74.57676 13272 ft 304 kts 259°
2026-04-23 04:11 55.08351 74.53990 12865 ft 302 kts 259°
2026-04-23 04:11 55.08036 74.50374 12466 ft 301 kts 259°
2026-04-23 04:12 55.07720 74.46779 12076 ft 299 kts 258°
2026-04-23 04:12 55.07405 74.43205 11685 ft 297 kts 258°
2026-04-23 04:12 55.07089 74.39646 11291 ft 296 kts 258°
2026-04-23 04:12 55.06775 74.36101 10895 ft 295 kts 258°
2026-04-23 04:13 55.06461 74.32574 10498 ft 294 kts 258°
2026-04-23 04:13 55.06145 74.29072 10252 ft 288 kts 258°
2026-04-23 04:13 55.05841 74.25685 10072 ft 279 kts 257°
2026-04-23 04:13 55.05540 74.22354 9746 ft 277 kts 257°
2026-04-23 04:14 55.05240 74.19049 9377 ft 276 kts 257°
2026-04-23 04:14 55.04938 74.15745 8976 ft 275 kts 257°
2026-04-23 04:14 55.04635 74.12460 8566 ft 274 kts 258°
2026-04-23 04:14 55.04332 74.09184 8161 ft 273 kts 258°
2026-04-23 04:15 55.04035 74.05919 7712 ft 271 kts 259°
2026-04-23 04:15 55.03774 74.02673 7025 ft 270 kts 261°
2026-04-23 04:15 55.03302 73.96319 6087 ft 260 kts 262°
2026-04-23 04:16 55.03069 73.93187 5663 ft 261 kts 262°
2026-04-23 04:16 55.02836 73.90075 5427 ft 254 kts 262°
2026-04-23 04:16 55.02606 73.87046 5115 ft 251 kts 262°
2026-04-23 04:16 55.02377 73.84031 4720 ft 251 kts 263°
2026-04-23 04:17 55.02143 73.80987 4318 ft 250 kts 263°
2026-04-23 04:17 55.01910 73.77997 3977 ft 246 kts 263°
2026-04-23 04:17 55.01683 73.75128 3916 ft 231 kts 263°
2026-04-23 04:17 55.01470 73.72432 3854 ft 220 kts 263°
2026-04-23 04:18 55.01261 73.69818 3757 ft 217 kts 263°
2026-04-23 04:18 55.01054 73.67214 3668 ft 216 kts 263°
2026-04-23 04:18 55.00849 73.64622 3577 ft 216 kts 263°
2026-04-23 04:18 55.00695 73.62060 3482 ft 210 kts 264°
2026-04-23 04:19 55.00462 73.59592 3364 ft 205 kts 260°
2026-04-23 04:19 55.00163 73.57158 3130 ft 206 kts 259°
2026-04-23 04:19 54.99851 73.54764 2868 ft 200 kts 259°
2026-04-23 04:19 54.99545 73.52429 2611 ft 197 kts 259°
2026-04-23 04:20 54.99246 73.50153 2368 ft 188 kts 259°
2026-04-23 04:20 54.98960 73.47987 2097 ft 179 kts 260°
2026-04-23 04:20 54.98689 73.45930 1872 ft 169 kts 259°
2026-04-23 04:20 54.98432 73.43985 1626 ft 161 kts 259°
2026-04-23 04:21 54.98268 73.42744 1484 ft 156 kts 258°
2026-04-23 04:21 54.97948 73.40328 1200 ft 150 kts 259°
2026-04-23 04:21 54.97794 73.39161 1061 ft 149 kts 259°
2026-04-23 04:21 54.97563 73.37423 853 ft 146 kts 258°
2026-04-23 04:22 54.97336 73.35706 671 ft 145 kts 259°
2026-04-23 04:22 54.97114 73.33983 481 ft 144 kts 257°
2026-04-23 04:22 54.96883 73.32296 318 ft 138 kts 257°
2026-04-23 04:22 54.96701 73.30923 312 ft 79 kts 257°
2026-04-23 04:23 54.96622 73.30325 315 ft 42 kts 257°
2026-04-23 04:23 54.96555 73.29840 317 ft 40 kts 257°
2026-04-23 04:23 54.96494 73.29378 321 ft 35 kts 257°
2026-04-23 04:23 54.96441 73.29156 321 ft 15 kts 198°
2026-04-23 04:24 54.96324 73.29190 321 ft 19 kts 167°
2026-04-23 04:24 54.96177 73.29249 321 ft 24 kts 167°
2026-04-23 04:24 54.96079 73.29361 321 ft 14 kts 86°
2026-04-23 04:24 54.96105 73.29551 318 ft 19 kts 76°
2026-04-23 04:25 54.96138 73.29801 319 ft 24 kts 77°
2026-04-23 04:25 54.96178 73.30097 317 ft 16 kts 77°
2026-04-23 04:25 54.96129 73.30239 317 ft 17 kts 150°
2026-04-23 04:25 54.96023 73.30390 317 ft 22 kts 141°
2026-04-23 04:26 54.95891 73.30574 315 ft 27 kts 142°
2026-04-23 04:26 54.95755 73.30766 315 ft 23 kts 140°
2026-04-23 04:26 54.95671 73.30952 315 ft 18 kts 97°
2026-04-23 04:26 54.95745 73.31146 313 ft 22 kts 45°
2026-04-23 04:27 54.95863 73.31357 311 ft 26 kts 51°
2026-04-23 04:27 54.95998 73.31608 310 ft 30 kts 42°
2026-04-23 04:27 54.96128 73.31838 309 ft 20 kts 46°
2026-04-23 04:28 54.96239 73.31838 309 ft 12 kts 316°
2026-04-23 04:28 54.96298 73.31854 308 ft 13 kts 106°
2026-04-23 04:28 54.96267 73.31905 308 ft 0 kts 137°